Location: Dannhausen
(51.8650°N, 10.1026°E)
Time: 23:38:19
(UTC+00:00)

Iridium 4 Rocket - Pass Details

Date: 09 April 2020
Orbit: 585 x 904 km, 86.9° (Epoch: 23 May)

Event Time Altitude Azimuth Distance (km) Brightness Sun altitude
Rises 19:50:48 0° 359° (N) 2,869 7.0 -15.2°
Reaches altitude 10° 19:53:04 10° 4° (N) 1,940 6.0 -15.5°
Maximum altitude 19:57:13 57° 83° (E) 698 3.0 -16.0°
Enters shadow 19:59:08 29° 150° (SSE) 1,088 3.8 -16.3°
